Hourly Data Report for May 03, 2003

SHERBROOKE A
QUEBEC

45°26'00.000" N
71°41'00.000" W
241.40 m
7028124
71610
YSC

Download Data

Hourly Data (May 2003)
Hourly Data Report for May 3, 2003
TIME
LST
Temp Definition
°C
Dew Point Definition
°C
Rel Hum Definition
%
Precip. Amount Definition
mm

Wind Dir Definition
10's deg

Wind Spd Definition
km/h
Visibility Definition
km
Stn Press Definition
kPa
Hmdx Definition


Wind Chill Definition


Weather Definition


00:00 2.4 1.8 96   1 6 11.3 98.80      
01:00 2.3 1.1 92   3 7 8.0 98.78      
02:00 1.5 0.5 93   1 4 9.7 98.76      
03:00 0.8 -0.2 93   4 6 9.7 98.82      
04:00 1.1 0.0 92   4 7 8.0 98.86      
05:00 -1.2 -2.0 94     0 4.8 98.93      
06:00 1.0 -0.1 92     0 15.0 99.03      
07:00 2.4 -0.2 83   24 4 24.1 99.06     Mainly Clear
08:00 4.4 -2.2 62   2 15 24.1 99.07     Clear
09:00 5.7 -2.2 57   5 11 24.1 99.09     Clear
10:00 7.7 -1.6 52   35 6 24.1 99.09     Clear
11:00 8.7 -3.4 42   36 11 24.1 99.05     Clear
12:00 9.6 -4.0 38   33 17 24.1 99.03     Clear
13:00 10.0 -4.6 35   33 17 24.1 99.01     Clear
14:00 11.1 -4.6 33   34 17 24.1 98.99     Clear
15:00 11.6 -4.9 31   31 19 24.1 98.99     Clear
16:00 11.8 -4.6 31   29 19 24.1 99.03     Clear
17:00 11.4 -4.9 32   28 13 15.0 99.05      
18:00 9.8 -5.1 35   29 17 15.0 99.05      
19:00 6.8 -5.4 41   29 9 15.0 99.07      
20:00 2.0 -3.0 69   26 4 15.0 99.13      
21:00 1.3 -3.1 72     0 15.0 99.15      
22:00 -0.2 -3.3 80     0 15.0 99.20      
23:00 -0.9 -3.4 83   10 4 15.0 99.25   -2  

Notes on Data Quality.

Legend

  • E = Estimated
  • M = Missing
  • NA = Not Available*
  • [empty] = Indicates an unobserved value
Date modified: